Starlink 4718

operational
NORAD ID: 53773 Int'l Des: 2022-111 Owner: SPXS Country: US Constellation: starlink
LEOCIRCULAR

Starlink 4718について

説明を読み込み中...

リアルタイム位置

3D地球を読み込み中...

次回通過

高度履歴

Altitude vs Time

uPlot chart will show altitude changes over time

軌道要素

1 53773U 22111A 25296.94871723 -.00001251 00000-0 -60548-4 0 9995
2 53773 53.2184 177.8950 0001714 91.8499 268.2689 15.08833659173202
Epoch: Oct 23, 2025 • Age: 19 hours

現在のステータス

高度 559.5 km
速度 7.58 km/s
衛星直下点 -53.36°S, 148.17°E
打ち上げ日 Sep 11, 2022
運用期間 3.1 years
タイプ internet

技術仕様

分類 Payload
質量 305.00 kg
乾燥質量 290.00 kg
総質量 305.00 kg
長さ 0.20 m
直径 2.80 m
スパン 9.00 m
形状 Box + pan
製造者 SPXS
バスタイプ Starlink
フェーズステータス In Orbit
所有者/国 SPXS/US

大規模コンステレーション

Loading constellations...